Zurück zum Katalog

STARLINK-5375

AktivKommunikationVLEO
NORAD 56140·PAYLOAD·🇺🇸 United States

Gestartet Mar 29, 2023 von Cape Canaveral Space Force Station

Loading…

Nächste Überflüge (nächste 24 Stunden)

TLE

AktuellSource: CelesTrak SupGP

Epoche: Sep 15, 2026, 02:03 UTC

1 56140C 23046AZ  26258.08590278  .00026843  00000+0  97232-3 0  2589
2 56140  43.0016 157.7512 0001019 264.1881  15.8212 15.27563138    12

Verfolge STARLINK-5375 in Echtzeit mit AllMySat

Download on the App Store